Index of /20260503/WXO-DD/model_caps/3km/00/030
Name Last modified Size Description
Parent Directory -
20260503T00Z_MSC_CAPS_AbsoluteVorticity_IsbL-0250_RLatLon0.03_PT030H.grib2 2026-05-03 06:16 1.1M
20260503T00Z_MSC_CAPS_AbsoluteVorticity_IsbL-0500_RLatLon0.03_PT030H.grib2 2026-05-03 06:16 1.1M
20260503T00Z_MSC_CAPS_AbsoluteVorticity_IsbL-0700_RLatLon0.03_PT030H.grib2 2026-05-03 06:16 1.1M
20260503T00Z_MSC_CAPS_AbsoluteVorticity_IsbL-0850_RLatLon0.03_PT030H.grib2 2026-05-03 06:16 1.2M
20260503T00Z_MSC_CAPS_AbsoluteVorticity_IsbL-1000_RLatLon0.03_PT030H.grib2 2026-05-03 06:16 1.3M
20260503T00Z_MSC_CAPS_AirDensity_AGL-120m_RLatLon0.03_PT030H.grib2 2026-05-03 06:16 1.4M
20260503T00Z_MSC_CAPS_AirDensity_AGL-40m_RLatLon0.03_PT030H.grib2 2026-05-03 06:16 1.4M
20260503T00Z_MSC_CAPS_AirDensity_AGL-80m_RLatLon0.03_PT030H.grib2 2026-05-03 06:16 1.4M
20260503T00Z_MSC_CAPS_AirTemp_AGL-120m_RLatLon0.03_PT030H.grib2 2026-05-03 06:16 1.4M
20260503T00Z_MSC_CAPS_AirTemp_AGL-2m_RLatLon0.03_PT030H.grib2 2026-05-03 06:16 1.8M
20260503T00Z_MSC_CAPS_AirTemp_AGL-40m_RLatLon0.03_PT030H.grib2 2026-05-03 06:16 1.5M
20260503T00Z_MSC_CAPS_AirTemp_AGL-80m_RLatLon0.03_PT030H.grib2 2026-05-03 06:16 1.5M
20260503T00Z_MSC_CAPS_AirTemp_IsbL-0050_RLatLon0.03_PT030H.grib2 2026-05-03 06:16 686K
20260503T00Z_MSC_CAPS_AirTemp_IsbL-0100_RLatLon0.03_PT030H.grib2 2026-05-03 06:16 962K
20260503T00Z_MSC_CAPS_AirTemp_IsbL-0150_RLatLon0.03_PT030H.grib2 2026-05-03 06:16 745K
20260503T00Z_MSC_CAPS_AirTemp_IsbL-0175_RLatLon0.03_PT030H.grib2 2026-05-03 06:16 767K
20260503T00Z_MSC_CAPS_AirTemp_IsbL-0200_RLatLon0.03_PT030H.grib2 2026-05-03 06:16 786K
20260503T00Z_MSC_CAPS_AirTemp_IsbL-0225_RLatLon0.03_PT030H.grib2 2026-05-03 06:16 792K
20260503T00Z_MSC_CAPS_AirTemp_IsbL-0250_RLatLon0.03_PT030H.grib2 2026-05-03 06:16 1.0M
20260503T00Z_MSC_CAPS_AirTemp_IsbL-0275_RLatLon0.03_PT030H.grib2 2026-05-03 06:16 1.0M
20260503T00Z_MSC_CAPS_AirTemp_IsbL-0300_RLatLon0.03_PT030H.grib2 2026-05-03 06:16 1.0M
20260503T00Z_MSC_CAPS_AirTemp_IsbL-0350_RLatLon0.03_PT030H.grib2 2026-05-03 06:16 743K
20260503T00Z_MSC_CAPS_AirTemp_IsbL-0400_RLatLon0.03_PT030H.grib2 2026-05-03 06:16 750K
20260503T00Z_MSC_CAPS_AirTemp_IsbL-0450_RLatLon0.03_PT030H.grib2 2026-05-03 06:16 770K
20260503T00Z_MSC_CAPS_AirTemp_IsbL-0500_RLatLon0.03_PT030H.grib2 2026-05-03 06:16 786K
20260503T00Z_MSC_CAPS_AirTemp_IsbL-0550_RLatLon0.03_PT030H.grib2 2026-05-03 06:16 955K
20260503T00Z_MSC_CAPS_AirTemp_IsbL-0600_RLatLon0.03_PT030H.grib2 2026-05-03 06:16 973K
20260503T00Z_MSC_CAPS_AirTemp_IsbL-0650_RLatLon0.03_PT030H.grib2 2026-05-03 06:16 1.0M
20260503T00Z_MSC_CAPS_AirTemp_IsbL-0700_RLatLon0.03_PT030H.grib2 2026-05-03 06:16 940K
20260503T00Z_MSC_CAPS_AirTemp_IsbL-0750_RLatLon0.03_PT030H.grib2 2026-05-03 06:16 955K
20260503T00Z_MSC_CAPS_AirTemp_IsbL-0800_RLatLon0.03_PT030H.grib2 2026-05-03 06:16 1.0M
20260503T00Z_MSC_CAPS_AirTemp_IsbL-0850_RLatLon0.03_PT030H.grib2 2026-05-03 06:16 1.0M
20260503T00Z_MSC_CAPS_AirTemp_IsbL-0875_RLatLon0.03_PT030H.grib2 2026-05-03 06:16 1.0M
20260503T00Z_MSC_CAPS_AirTemp_IsbL-0900_RLatLon0.03_PT030H.grib2 2026-05-03 06:16 1.0M
20260503T00Z_MSC_CAPS_AirTemp_IsbL-0925_RLatLon0.03_PT030H.grib2 2026-05-03 06:16 1.1M
20260503T00Z_MSC_CAPS_AirTemp_IsbL-0950_RLatLon0.03_PT030H.grib2 2026-05-03 06:16 1.1M
20260503T00Z_MSC_CAPS_AirTemp_IsbL-0970_RLatLon0.03_PT030H.grib2 2026-05-03 06:16 1.1M
20260503T00Z_MSC_CAPS_AirTemp_IsbL-0985_RLatLon0.03_PT030H.grib2 2026-05-03 06:16 1.1M
20260503T00Z_MSC_CAPS_AirTemp_IsbL-1000_RLatLon0.03_PT030H.grib2 2026-05-03 06:16 1.1M
20260503T00Z_MSC_CAPS_AirTemp_IsbL-1015_RLatLon0.03_PT030H.grib2 2026-05-03 06:16 1.1M
20260503T00Z_MSC_CAPS_Albedo_Sfc_RLatLon0.03_PT030H.grib2 2026-05-03 06:16 2.7M
20260503T00Z_MSC_CAPS_CAPE_Sfc_RLatLon0.03_PT030H.grib2 2026-05-03 06:16 137K
20260503T00Z_MSC_CAPS_CloudWater_EAtm_RLatLon0.03_PT030H.grib2 2026-05-03 06:16 1.5M
20260503T00Z_MSC_CAPS_ConvectivePrecip-Accum_Sfc_RLatLon0.03_PT030H.grib2 2026-05-03 06:16 4.3M
20260503T00Z_MSC_CAPS_DewPointDepression_AGL-120m_RLatLon0.03_PT030H.grib2 2026-05-03 06:16 2.1M
20260503T00Z_MSC_CAPS_DewPointDepression_AGL-2m_RLatLon0.03_PT030H.grib2 2026-05-03 06:16 2.2M
20260503T00Z_MSC_CAPS_DewPointDepression_AGL-40m_RLatLon0.03_PT030H.grib2 2026-05-03 06:16 2.1M
20260503T00Z_MSC_CAPS_DewPointDepression_AGL-80m_RLatLon0.03_PT030H.grib2 2026-05-03 06:16 2.1M
20260503T00Z_MSC_CAPS_DewPointDepression_IsbL-0050_RLatLon0.03_PT030H.grib2 2026-05-03 06:16 8.6K
20260503T00Z_MSC_CAPS_DewPointDepression_IsbL-0100_RLatLon0.03_PT030H.grib2 2026-05-03 06:16 88K
20260503T00Z_MSC_CAPS_DewPointDepression_IsbL-0150_RLatLon0.03_PT030H.grib2 2026-05-03 06:16 84K
20260503T00Z_MSC_CAPS_DewPointDepression_IsbL-0175_RLatLon0.03_PT030H.grib2 2026-05-03 06:16 220K
20260503T00Z_MSC_CAPS_DewPointDepression_IsbL-0200_RLatLon0.03_PT030H.grib2 2026-05-03 06:16 390K
20260503T00Z_MSC_CAPS_DewPointDepression_IsbL-0225_RLatLon0.03_PT030H.grib2 2026-05-03 06:16 660K
20260503T00Z_MSC_CAPS_DewPointDepression_IsbL-0250_RLatLon0.03_PT030H.grib2 2026-05-03 06:16 864K
20260503T00Z_MSC_CAPS_DewPointDepression_IsbL-0275_RLatLon0.03_PT030H.grib2 2026-05-03 06:16 1.0M
20260503T00Z_MSC_CAPS_DewPointDepression_IsbL-0300_RLatLon0.03_PT030H.grib2 2026-05-03 06:16 1.0M
20260503T00Z_MSC_CAPS_DewPointDepression_IsbL-0350_RLatLon0.03_PT030H.grib2 2026-05-03 06:16 1.1M
20260503T00Z_MSC_CAPS_DewPointDepression_IsbL-0400_RLatLon0.03_PT030H.grib2 2026-05-03 06:16 1.1M
20260503T00Z_MSC_CAPS_DewPointDepression_IsbL-0450_RLatLon0.03_PT030H.grib2 2026-05-03 06:16 1.1M
20260503T00Z_MSC_CAPS_DewPointDepression_IsbL-0500_RLatLon0.03_PT030H.grib2 2026-05-03 06:16 1.2M
20260503T00Z_MSC_CAPS_DewPointDepression_IsbL-0550_RLatLon0.03_PT030H.grib2 2026-05-03 06:16 1.2M
20260503T00Z_MSC_CAPS_DewPointDepression_IsbL-0600_RLatLon0.03_PT030H.grib2 2026-05-03 06:16 1.2M
20260503T00Z_MSC_CAPS_DewPointDepression_IsbL-0650_RLatLon0.03_PT030H.grib2 2026-05-03 06:16 1.3M
20260503T00Z_MSC_CAPS_DewPointDepression_IsbL-0700_RLatLon0.03_PT030H.grib2 2026-05-03 06:16 1.3M
20260503T00Z_MSC_CAPS_DewPointDepression_IsbL-0750_RLatLon0.03_PT030H.grib2 2026-05-03 06:16 1.3M
20260503T00Z_MSC_CAPS_DewPointDepression_IsbL-0800_RLatLon0.03_PT030H.grib2 2026-05-03 06:16 1.4M
20260503T00Z_MSC_CAPS_DewPointDepression_IsbL-0850_RLatLon0.03_PT030H.grib2 2026-05-03 06:16 1.4M
20260503T00Z_MSC_CAPS_DewPointDepression_IsbL-0875_RLatLon0.03_PT030H.grib2 2026-05-03 06:16 1.4M
20260503T00Z_MSC_CAPS_DewPointDepression_IsbL-0900_RLatLon0.03_PT030H.grib2 2026-05-03 06:16 1.4M
20260503T00Z_MSC_CAPS_DewPointDepression_IsbL-0925_RLatLon0.03_PT030H.grib2 2026-05-03 06:16 1.4M
20260503T00Z_MSC_CAPS_DewPointDepression_IsbL-0950_RLatLon0.03_PT030H.grib2 2026-05-03 06:16 1.4M
20260503T00Z_MSC_CAPS_DewPointDepression_IsbL-0970_RLatLon0.03_PT030H.grib2 2026-05-03 06:16 1.4M
20260503T00Z_MSC_CAPS_DewPointDepression_IsbL-0985_RLatLon0.03_PT030H.grib2 2026-05-03 06:16 1.4M
20260503T00Z_MSC_CAPS_DewPointDepression_IsbL-1000_RLatLon0.03_PT030H.grib2 2026-05-03 06:16 1.3M
20260503T00Z_MSC_CAPS_DewPointDepression_IsbL-1015_RLatLon0.03_PT030H.grib2 2026-05-03 06:16 1.3M
20260503T00Z_MSC_CAPS_DewPoint_AGL-120m_RLatLon0.03_PT030H.grib2 2026-05-03 06:16 3.6M
20260503T00Z_MSC_CAPS_DewPoint_AGL-2m_RLatLon0.03_PT030H.grib2 2026-05-03 06:16 1.8M
20260503T00Z_MSC_CAPS_DewPoint_AGL-40m_RLatLon0.03_PT030H.grib2 2026-05-03 06:16 3.7M
20260503T00Z_MSC_CAPS_DewPoint_AGL-80m_RLatLon0.03_PT030H.grib2 2026-05-03 06:16 3.7M
20260503T00Z_MSC_CAPS_DownwardLongwaveRadiationFlux-Accum_Sfc_RLatLon0.03_PT030H.grib2 2026-05-03 06:16 2.4M
20260503T00Z_MSC_CAPS_DownwardShortwaveRadiationFlux-Accum_NTAtm_RLatLon0.03_PT030H.grib2 2026-05-03 06:16 474K
20260503T00Z_MSC_CAPS_DownwardShortwaveRadiationFlux-Accum_Sfc_RLatLon0.03_PT030H.grib2 2026-05-03 06:16 2.7M
20260503T00Z_MSC_CAPS_FreezingRain-Accum_Sfc_RLatLon0.03_PT030H.grib2 2026-05-03 06:16 848K
20260503T00Z_MSC_CAPS_GeopotentialHeight_IsbL-0050_RLatLon0.03_PT030H.grib2 2026-05-03 06:16 640K
20260503T00Z_MSC_CAPS_GeopotentialHeight_IsbL-0100_RLatLon0.03_PT030H.grib2 2026-05-03 06:16 763K
20260503T00Z_MSC_CAPS_GeopotentialHeight_IsbL-0150_RLatLon0.03_PT030H.grib2 2026-05-03 06:16 711K
20260503T00Z_MSC_CAPS_GeopotentialHeight_IsbL-0175_RLatLon0.03_PT030H.grib2 2026-05-03 06:16 729K
20260503T00Z_MSC_CAPS_GeopotentialHeight_IsbL-0200_RLatLon0.03_PT030H.grib2 2026-05-03 06:16 742K
20260503T00Z_MSC_CAPS_GeopotentialHeight_IsbL-0225_RLatLon0.03_PT030H.grib2 2026-05-03 06:16 754K
20260503T00Z_MSC_CAPS_GeopotentialHeight_IsbL-0250_RLatLon0.03_PT030H.grib2 2026-05-03 06:16 764K
20260503T00Z_MSC_CAPS_GeopotentialHeight_IsbL-0275_RLatLon0.03_PT030H.grib2 2026-05-03 06:16 777K
20260503T00Z_MSC_CAPS_GeopotentialHeight_IsbL-0300_RLatLon0.03_PT030H.grib2 2026-05-03 06:16 782K
20260503T00Z_MSC_CAPS_GeopotentialHeight_IsbL-0350_RLatLon0.03_PT030H.grib2 2026-05-03 06:16 781K
20260503T00Z_MSC_CAPS_GeopotentialHeight_IsbL-0400_RLatLon0.03_PT030H.grib2 2026-05-03 06:16 774K
20260503T00Z_MSC_CAPS_GeopotentialHeight_IsbL-0450_RLatLon0.03_PT030H.grib2 2026-05-03 06:16 767K
20260503T00Z_MSC_CAPS_GeopotentialHeight_IsbL-0500_RLatLon0.03_PT030H.grib2 2026-05-03 06:16 760K
20260503T00Z_MSC_CAPS_GeopotentialHeight_IsbL-0550_RLatLon0.03_PT030H.grib2 2026-05-03 06:16 752K
20260503T00Z_MSC_CAPS_GeopotentialHeight_IsbL-0600_RLatLon0.03_PT030H.grib2 2026-05-03 06:16 636K
20260503T00Z_MSC_CAPS_GeopotentialHeight_IsbL-0650_RLatLon0.03_PT030H.grib2 2026-05-03 06:16 634K
20260503T00Z_MSC_CAPS_GeopotentialHeight_IsbL-0700_RLatLon0.03_PT030H.grib2 2026-05-03 06:16 811K
20260503T00Z_MSC_CAPS_GeopotentialHeight_IsbL-0750_RLatLon0.03_PT030H.grib2 2026-05-03 06:16 812K
20260503T00Z_MSC_CAPS_GeopotentialHeight_IsbL-0800_RLatLon0.03_PT030H.grib2 2026-05-03 06:16 818K
20260503T00Z_MSC_CAPS_GeopotentialHeight_IsbL-0850_RLatLon0.03_PT030H.grib2 2026-05-03 06:16 828K
20260503T00Z_MSC_CAPS_GeopotentialHeight_IsbL-0875_RLatLon0.03_PT030H.grib2 2026-05-03 06:16 819K
20260503T00Z_MSC_CAPS_GeopotentialHeight_IsbL-0900_RLatLon0.03_PT030H.grib2 2026-05-03 06:16 839K
20260503T00Z_MSC_CAPS_GeopotentialHeight_IsbL-0925_RLatLon0.03_PT030H.grib2 2026-05-03 06:16 833K
20260503T00Z_MSC_CAPS_GeopotentialHeight_IsbL-0950_RLatLon0.03_PT030H.grib2 2026-05-03 06:16 853K
20260503T00Z_MSC_CAPS_GeopotentialHeight_IsbL-0970_RLatLon0.03_PT030H.grib2 2026-05-03 06:16 676K
20260503T00Z_MSC_CAPS_GeopotentialHeight_IsbL-0985_RLatLon0.03_PT030H.grib2 2026-05-03 06:16 682K
20260503T00Z_MSC_CAPS_GeopotentialHeight_IsbL-1000_RLatLon0.03_PT030H.grib2 2026-05-03 06:16 688K
20260503T00Z_MSC_CAPS_GeopotentialHeight_IsbL-1015_RLatLon0.03_PT030H.grib2 2026-05-03 06:16 696K
20260503T00Z_MSC_CAPS_GeopotentialHeight_Sfc_RLatLon0.03_PT030H.grib2 2026-05-03 06:16 1.0M
20260503T00Z_MSC_CAPS_IcePellets-Accum_Sfc_RLatLon0.03_PT030H.grib2 2026-05-03 06:16 53K
20260503T00Z_MSC_CAPS_LatentHeatNetFlux_Sfc_RLatLon0.03_PT030H.grib2 2026-05-03 06:16 1.8M
20260503T00Z_MSC_CAPS_LiftedIndex-MU-VT_IsbL-0500_RLatLon0.03_PT030H.grib2 2026-05-03 06:16 3.4M
20260503T00Z_MSC_CAPS_MixedLayerThickness_Sfc_RLatLon0.03_PT030H.nc 2026-05-03 06:12 16M
20260503T00Z_MSC_CAPS_NetLongwaveRadiationFlux-Accum_Sfc_RLatLon0.03_PT030H.grib2 2026-05-03 06:16 2.6M
20260503T00Z_MSC_CAPS_NetShortwaveRadiationFlux-Accum_Sfc_RLatLon0.03_PT030H.grib2 2026-05-03 06:16 2.8M
20260503T00Z_MSC_CAPS_PlanetaryBoundaryLayerHeight_Sfc_RLatLon0.03_PT030H.grib2 2026-05-03 06:16 2.9M
20260503T00Z_MSC_CAPS_Precip-Accum_Sfc_RLatLon0.03_PT030H.grib2 2026-05-03 06:16 5.1M
20260503T00Z_MSC_CAPS_PrecipRate_Sfc_RLatLon0.03_PT030H.grib2 2026-05-03 06:16 469K
20260503T00Z_MSC_CAPS_PrecipType-Instant_Sfc_RLatLon0.03_PT030H.grib2 2026-05-03 06:16 2.0M
20260503T00Z_MSC_CAPS_Pressure_MSL_RLatLon0.03_PT030H.grib2 2026-05-03 06:16 923K
20260503T00Z_MSC_CAPS_Pressure_Sfc_RLatLon0.03_PT030H.grib2 2026-05-03 06:16 1.2M
20260503T00Z_MSC_CAPS_RadiativeTemp_Sfc_RLatLon0.03_PT030H.grib2 2026-05-03 06:16 2.1M
20260503T00Z_MSC_CAPS_Rain-Accum_Sfc_RLatLon0.03_PT030H.grib2 2026-05-03 06:16 2.5M
20260503T00Z_MSC_CAPS_RelativeHumidity_AGL-120m_RLatLon0.03_PT030H.grib2 2026-05-03 06:16 2.8M
20260503T00Z_MSC_CAPS_RelativeHumidity_AGL-2m_RLatLon0.03_PT030H.grib2 2026-05-03 06:16 3.0M
20260503T00Z_MSC_CAPS_RelativeHumidity_AGL-40m_RLatLon0.03_PT030H.grib2 2026-05-03 06:16 2.9M
20260503T00Z_MSC_CAPS_RelativeHumidity_AGL-80m_RLatLon0.03_PT030H.grib2 2026-05-03 06:16 2.8M
20260503T00Z_MSC_CAPS_RelativeHumidity_IsbL-0050_RLatLon0.03_PT030H.grib2 2026-05-03 06:16 1.0M
20260503T00Z_MSC_CAPS_RelativeHumidity_IsbL-0100_RLatLon0.03_PT030H.grib2 2026-05-03 06:16 864K
20260503T00Z_MSC_CAPS_RelativeHumidity_IsbL-0150_RLatLon0.03_PT030H.grib2 2026-05-03 06:16 616K
20260503T00Z_MSC_CAPS_RelativeHumidity_IsbL-0175_RLatLon0.03_PT030H.grib2 2026-05-03 06:16 486K
20260503T00Z_MSC_CAPS_RelativeHumidity_IsbL-0200_RLatLon0.03_PT030H.grib2 2026-05-03 06:16 648K
20260503T00Z_MSC_CAPS_RelativeHumidity_IsbL-0225_RLatLon0.03_PT030H.grib2 2026-05-03 06:16 885K
20260503T00Z_MSC_CAPS_RelativeHumidity_IsbL-0250_RLatLon0.03_PT030H.grib2 2026-05-03 06:16 1.1M
20260503T00Z_MSC_CAPS_RelativeHumidity_IsbL-0275_RLatLon0.03_PT030H.grib2 2026-05-03 06:16 1.4M
20260503T00Z_MSC_CAPS_RelativeHumidity_IsbL-0300_RLatLon0.03_PT030H.grib2 2026-05-03 06:16 1.7M
20260503T00Z_MSC_CAPS_RelativeHumidity_IsbL-0350_RLatLon0.03_PT030H.grib2 2026-05-03 06:16 1.9M
20260503T00Z_MSC_CAPS_RelativeHumidity_IsbL-0400_RLatLon0.03_PT030H.grib2 2026-05-03 06:16 2.1M
20260503T00Z_MSC_CAPS_RelativeHumidity_IsbL-0450_RLatLon0.03_PT030H.grib2 2026-05-03 06:16 2.2M
20260503T00Z_MSC_CAPS_RelativeHumidity_IsbL-0500_RLatLon0.03_PT030H.grib2 2026-05-03 06:16 2.1M
20260503T00Z_MSC_CAPS_RelativeHumidity_IsbL-0550_RLatLon0.03_PT030H.grib2 2026-05-03 06:16 2.2M
20260503T00Z_MSC_CAPS_RelativeHumidity_IsbL-0600_RLatLon0.03_PT030H.grib2 2026-05-03 06:16 2.3M
20260503T00Z_MSC_CAPS_RelativeHumidity_IsbL-0650_RLatLon0.03_PT030H.grib2 2026-05-03 06:16 2.3M
20260503T00Z_MSC_CAPS_RelativeHumidity_IsbL-0700_RLatLon0.03_PT030H.grib2 2026-05-03 06:16 2.4M
20260503T00Z_MSC_CAPS_RelativeHumidity_IsbL-0750_RLatLon0.03_PT030H.grib2 2026-05-03 06:16 2.4M
20260503T00Z_MSC_CAPS_RelativeHumidity_IsbL-0800_RLatLon0.03_PT030H.grib2 2026-05-03 06:16 2.6M
20260503T00Z_MSC_CAPS_RelativeHumidity_IsbL-0850_RLatLon0.03_PT030H.grib2 2026-05-03 06:16 2.6M
20260503T00Z_MSC_CAPS_RelativeHumidity_IsbL-0875_RLatLon0.03_PT030H.grib2 2026-05-03 06:16 2.6M
20260503T00Z_MSC_CAPS_RelativeHumidity_IsbL-0900_RLatLon0.03_PT030H.grib2 2026-05-03 06:16 2.6M
20260503T00Z_MSC_CAPS_RelativeHumidity_IsbL-0925_RLatLon0.03_PT030H.grib2 2026-05-03 06:16 2.7M
20260503T00Z_MSC_CAPS_RelativeHumidity_IsbL-0950_RLatLon0.03_PT030H.grib2 2026-05-03 06:16 2.7M
20260503T00Z_MSC_CAPS_RelativeHumidity_IsbL-0970_RLatLon0.03_PT030H.grib2 2026-05-03 06:16 2.8M
20260503T00Z_MSC_CAPS_RelativeHumidity_IsbL-0985_RLatLon0.03_PT030H.grib2 2026-05-03 06:16 2.8M
20260503T00Z_MSC_CAPS_RelativeHumidity_IsbL-1000_RLatLon0.03_PT030H.grib2 2026-05-03 06:16 2.9M
20260503T00Z_MSC_CAPS_RelativeHumidity_IsbL-1015_RLatLon0.03_PT030H.grib2 2026-05-03 06:16 2.9M
20260503T00Z_MSC_CAPS_Runoff-Accum_Sfc_RLatLon0.03_PT030H.grib2 2026-05-03 06:16 280K
20260503T00Z_MSC_CAPS_SeaIceAreaFraction_Sfc_RLatLon0.03_PT030H.nc 2026-05-03 06:12 15M
20260503T00Z_MSC_CAPS_SeaIceCompressiveStrength_Sfc_RLatLon0.03_PT030H.nc 2026-05-03 06:12 15M
20260503T00Z_MSC_CAPS_SeaIceDivergence_Sfc_RLatLon0.03_PT030H.nc 2026-05-03 06:12 15M
20260503T00Z_MSC_CAPS_SeaIceInternalPressure_Sfc_RLatLon0.03_PT030H.nc 2026-05-03 06:12 15M
20260503T00Z_MSC_CAPS_SeaIceShear_Sfc_RLatLon0.03_PT030H.nc 2026-05-03 06:12 14M
20260503T00Z_MSC_CAPS_SeaIceSnowTemp_Sfc_RLatLon0.03_PT030H.nc 2026-05-03 06:12 14M
20260503T00Z_MSC_CAPS_SeaIceSnowVolume_Sfc_RLatLon0.03_PT030H.nc 2026-05-03 06:12 15M
20260503T00Z_MSC_CAPS_SeaIceVelocityX_Sfc_RLatLon0.03_PT030H.nc 2026-05-03 06:12 15M
20260503T00Z_MSC_CAPS_SeaIceVelocityY_Sfc_RLatLon0.03_PT030H.nc 2026-05-03 06:12 15M
20260503T00Z_MSC_CAPS_SeaIceVolume_Sfc_RLatLon0.03_PT030H.nc 2026-05-03 06:12 15M
20260503T00Z_MSC_CAPS_SeaSurfaceHeight_Sfc_RLatLon0.03_PT030H.nc 2026-05-03 06:12 16M
20260503T00Z_MSC_CAPS_SeaWaterSalinity_DBS-0.5m_RLatLon0.03_PT030H.nc 2026-05-03 06:12 16M
20260503T00Z_MSC_CAPS_SeaWaterSalinity_DBS-all_RLatLon0.03_PT030H.nc 2026-05-03 06:12 107M
20260503T00Z_MSC_CAPS_SeaWaterTemp_DBS-0.5m_RLatLon0.03_PT030H.nc 2026-05-03 06:12 14M
20260503T00Z_MSC_CAPS_SeaWaterTemp_DBS-all_RLatLon0.03_PT030H.nc 2026-05-03 06:12 88M
20260503T00Z_MSC_CAPS_SeaWaterVelocityX_DBS-0.5m_RLatLon0.03_PT030H.nc 2026-05-03 06:12 17M
20260503T00Z_MSC_CAPS_SeaWaterVelocityX_DBS-all_RLatLon0.03_PT030H.nc 2026-05-03 06:12 199M
20260503T00Z_MSC_CAPS_SeaWaterVelocityY_DBS-0.5m_RLatLon0.03_PT030H.nc 2026-05-03 06:12 17M
20260503T00Z_MSC_CAPS_SeaWaterVelocityY_DBS-all_RLatLon0.03_PT030H.nc 2026-05-03 06:12 209M
20260503T00Z_MSC_CAPS_SensibleHeatNetFlux_Sfc_RLatLon0.03_PT030H.grib2 2026-05-03 06:16 2.0M
20260503T00Z_MSC_CAPS_ShowalterIndex_IsbL-0500_RLatLon0.03_PT030H.grib2 2026-05-03 06:16 3.8M
20260503T00Z_MSC_CAPS_Snow-Accum_Sfc_RLatLon0.03_PT030H.grib2 2026-05-03 06:16 3.9M
20260503T00Z_MSC_CAPS_SnowDensity_Sfc_RLatLon0.03_PT030H.grib2 2026-05-03 06:16 1.3M
20260503T00Z_MSC_CAPS_SnowDepthWaterEquivalent_Sfc_RLatLon0.03_PT030H.grib2 2026-05-03 06:16 661K
20260503T00Z_MSC_CAPS_SnowDepth_Sfc_RLatLon0.03_PT030H.grib2 2026-05-03 06:16 1.1M
20260503T00Z_MSC_CAPS_SoilTemp_DBS-0to10cm_RLatLon0.03_PT030H.grib2 2026-05-03 06:16 1.6M
20260503T00Z_MSC_CAPS_SoilTemp_Sfc_RLatLon0.03_PT030H.grib2 2026-05-03 06:16 1.8M
20260503T00Z_MSC_CAPS_SoilVolumetricIceContent_Sfc_RLatLon0.03_PT030H.grib2 2026-05-03 06:16 1.4M
20260503T00Z_MSC_CAPS_SoilVolumetricWaterContent_DBS-0to10cm_RLatLon0.03_PT030H.grib2 2026-05-03 06:16 1.3M
20260503T00Z_MSC_CAPS_SoilVolumetricWaterContent_DBS-0to1cm_RLatLon0.03_PT030H.grib2 2026-05-03 06:16 1.7M
20260503T00Z_MSC_CAPS_SpecificHumidity_AGL-120m_RLatLon0.03_PT030H.grib2 2026-05-03 06:16 1.8M
20260503T00Z_MSC_CAPS_SpecificHumidity_AGL-2m_RLatLon0.03_PT030H.grib2 2026-05-03 06:16 2.2M
20260503T00Z_MSC_CAPS_SpecificHumidity_AGL-40m_RLatLon0.03_PT030H.grib2 2026-05-03 06:16 1.9M
20260503T00Z_MSC_CAPS_SpecificHumidity_AGL-80m_RLatLon0.03_PT030H.grib2 2026-05-03 06:16 1.5M
20260503T00Z_MSC_CAPS_SpecificHumidity_IsbL-0050_RLatLon0.03_PT030H.grib2 2026-05-03 06:16 908K
20260503T00Z_MSC_CAPS_SpecificHumidity_IsbL-0100_RLatLon0.03_PT030H.grib2 2026-05-03 06:16 1.0M
20260503T00Z_MSC_CAPS_SpecificHumidity_IsbL-0150_RLatLon0.03_PT030H.grib2 2026-05-03 06:16 1.0M
20260503T00Z_MSC_CAPS_SpecificHumidity_IsbL-0175_RLatLon0.03_PT030H.grib2 2026-05-03 06:16 1.0M
20260503T00Z_MSC_CAPS_SpecificHumidity_IsbL-0200_RLatLon0.03_PT030H.grib2 2026-05-03 06:16 885K
20260503T00Z_MSC_CAPS_SpecificHumidity_IsbL-0225_RLatLon0.03_PT030H.grib2 2026-05-03 06:16 855K
20260503T00Z_MSC_CAPS_SpecificHumidity_IsbL-0250_RLatLon0.03_PT030H.grib2 2026-05-03 06:16 1.1M
20260503T00Z_MSC_CAPS_SpecificHumidity_IsbL-0275_RLatLon0.03_PT030H.grib2 2026-05-03 06:16 1.1M
20260503T00Z_MSC_CAPS_SpecificHumidity_IsbL-0300_RLatLon0.03_PT030H.grib2 2026-05-03 06:16 1.1M
20260503T00Z_MSC_CAPS_SpecificHumidity_IsbL-0350_RLatLon0.03_PT030H.grib2 2026-05-03 06:16 970K
20260503T00Z_MSC_CAPS_SpecificHumidity_IsbL-0400_RLatLon0.03_PT030H.grib2 2026-05-03 06:16 961K
20260503T00Z_MSC_CAPS_SpecificHumidity_IsbL-0450_RLatLon0.03_PT030H.grib2 2026-05-03 06:16 1.3M
20260503T00Z_MSC_CAPS_SpecificHumidity_IsbL-0500_RLatLon0.03_PT030H.grib2 2026-05-03 06:16 1.1M
20260503T00Z_MSC_CAPS_SpecificHumidity_IsbL-0550_RLatLon0.03_PT030H.grib2 2026-05-03 06:16 1.2M
20260503T00Z_MSC_CAPS_SpecificHumidity_IsbL-0600_RLatLon0.03_PT030H.grib2 2026-05-03 06:16 1.4M
20260503T00Z_MSC_CAPS_SpecificHumidity_IsbL-0650_RLatLon0.03_PT030H.grib2 2026-05-03 06:16 1.2M
20260503T00Z_MSC_CAPS_SpecificHumidity_IsbL-0700_RLatLon0.03_PT030H.grib2 2026-05-03 06:16 1.3M
20260503T00Z_MSC_CAPS_SpecificHumidity_IsbL-0750_RLatLon0.03_PT030H.grib2 2026-05-03 06:16 1.4M
20260503T00Z_MSC_CAPS_SpecificHumidity_IsbL-0800_RLatLon0.03_PT030H.grib2 2026-05-03 06:16 1.6M
20260503T00Z_MSC_CAPS_SpecificHumidity_IsbL-0850_RLatLon0.03_PT030H.grib2 2026-05-03 06:16 1.7M
20260503T00Z_MSC_CAPS_SpecificHumidity_IsbL-0875_RLatLon0.03_PT030H.grib2 2026-05-03 06:16 1.8M
20260503T00Z_MSC_CAPS_SpecificHumidity_IsbL-0900_RLatLon0.03_PT030H.grib2 2026-05-03 06:16 1.9M
20260503T00Z_MSC_CAPS_SpecificHumidity_IsbL-0925_RLatLon0.03_PT030H.grib2 2026-05-03 06:16 1.5M
20260503T00Z_MSC_CAPS_SpecificHumidity_IsbL-0950_RLatLon0.03_PT030H.grib2 2026-05-03 06:16 2.0M
20260503T00Z_MSC_CAPS_SpecificHumidity_IsbL-0970_RLatLon0.03_PT030H.grib2 2026-05-03 06:16 2.0M
20260503T00Z_MSC_CAPS_SpecificHumidity_IsbL-0985_RLatLon0.03_PT030H.grib2 2026-05-03 06:16 2.1M
20260503T00Z_MSC_CAPS_SpecificHumidity_IsbL-1000_RLatLon0.03_PT030H.grib2 2026-05-03 06:16 2.1M
20260503T00Z_MSC_CAPS_SpecificHumidity_IsbL-1015_RLatLon0.03_PT030H.grib2 2026-05-03 06:16 2.1M
20260503T00Z_MSC_CAPS_SpecificHumidity_Sfc_RLatLon0.03_PT030H.grib2 2026-05-03 06:16 2.0M
20260503T00Z_MSC_CAPS_StormRelativeHelicity_Sfc_RLatLon0.03_PT030H.grib2 2026-05-03 06:16 3.3M
20260503T00Z_MSC_CAPS_Thickness_IsbL-1000to0500_RLatLon0.03_PT030H.grib2 2026-05-03 06:16 468K
20260503T00Z_MSC_CAPS_TotalCloudCover_Sfc_RLatLon0.03_PT030H.grib2 2026-05-03 06:16 3.6M
20260503T00Z_MSC_CAPS_TurboclineDepth_Sfc_RLatLon0.03_PT030H.nc 2026-05-03 06:12 16M
20260503T00Z_MSC_CAPS_UpwardLongwaveRadiationFlux_NTAtm_RLatLon0.03_PT030H.grib2 2026-05-03 06:16 2.9M
20260503T00Z_MSC_CAPS_UpwardShortwaveRadiationFlux_NTAtm_RLatLon0.03_PT030H.grib2 2026-05-03 06:16 1.8M
20260503T00Z_MSC_CAPS_VerticalVelocity_IsbL-0250_RLatLon0.03_PT030H.grib2 2026-05-03 06:16 1.2M
20260503T00Z_MSC_CAPS_VerticalVelocity_IsbL-0500_RLatLon0.03_PT030H.grib2 2026-05-03 06:16 1.1M
20260503T00Z_MSC_CAPS_VerticalVelocity_IsbL-0700_RLatLon0.03_PT030H.grib2 2026-05-03 06:16 1.2M
20260503T00Z_MSC_CAPS_VerticalVelocity_IsbL-0850_RLatLon0.03_PT030H.grib2 2026-05-03 06:16 1.4M
20260503T00Z_MSC_CAPS_VerticalVelocity_IsbL-1000_RLatLon0.03_PT030H.grib2 2026-05-03 06:16 1.4M
20260503T00Z_MSC_CAPS_WindDir_AGL-10m_RLatLon0.03_PT030H.grib2 2026-05-03 06:16 2.4M
20260503T00Z_MSC_CAPS_WindDir_AGL-120m_RLatLon0.03_PT030H.grib2 2026-05-03 06:16 1.2M
20260503T00Z_MSC_CAPS_WindDir_AGL-40m_RLatLon0.03_PT030H.grib2 2026-05-03 06:16 1.4M
20260503T00Z_MSC_CAPS_WindDir_AGL-80m_RLatLon0.03_PT030H.grib2 2026-05-03 06:16 1.3M
20260503T00Z_MSC_CAPS_WindDir_IsbL-0050_RLatLon0.03_PT030H.grib2 2026-05-03 06:16 1.0M
20260503T00Z_MSC_CAPS_WindDir_IsbL-0100_RLatLon0.03_PT030H.grib2 2026-05-03 06:16 1.0M
20260503T00Z_MSC_CAPS_WindDir_IsbL-0150_RLatLon0.03_PT030H.grib2 2026-05-03 06:16 1.0M
20260503T00Z_MSC_CAPS_WindDir_IsbL-0175_RLatLon0.03_PT030H.grib2 2026-05-03 06:16 1.1M
20260503T00Z_MSC_CAPS_WindDir_IsbL-0200_RLatLon0.03_PT030H.grib2 2026-05-03 06:16 1.1M
20260503T00Z_MSC_CAPS_WindDir_IsbL-0225_RLatLon0.03_PT030H.grib2 2026-05-03 06:16 1.1M
20260503T00Z_MSC_CAPS_WindDir_IsbL-0250_RLatLon0.03_PT030H.grib2 2026-05-03 06:16 1.1M
20260503T00Z_MSC_CAPS_WindDir_IsbL-0275_RLatLon0.03_PT030H.grib2 2026-05-03 06:16 1.1M
20260503T00Z_MSC_CAPS_WindDir_IsbL-0300_RLatLon0.03_PT030H.grib2 2026-05-03 06:16 1.1M
20260503T00Z_MSC_CAPS_WindDir_IsbL-0350_RLatLon0.03_PT030H.grib2 2026-05-03 06:16 1.1M
20260503T00Z_MSC_CAPS_WindDir_IsbL-0400_RLatLon0.03_PT030H.grib2 2026-05-03 06:16 1.1M
20260503T00Z_MSC_CAPS_WindDir_IsbL-0450_RLatLon0.03_PT030H.grib2 2026-05-03 06:16 1.2M
20260503T00Z_MSC_CAPS_WindDir_IsbL-0500_RLatLon0.03_PT030H.grib2 2026-05-03 06:16 1.2M
20260503T00Z_MSC_CAPS_WindDir_IsbL-0550_RLatLon0.03_PT030H.grib2 2026-05-03 06:16 1.2M
20260503T00Z_MSC_CAPS_WindDir_IsbL-0600_RLatLon0.03_PT030H.grib2 2026-05-03 06:16 1.2M
20260503T00Z_MSC_CAPS_WindDir_IsbL-0650_RLatLon0.03_PT030H.grib2 2026-05-03 06:16 1.3M
20260503T00Z_MSC_CAPS_WindDir_IsbL-0700_RLatLon0.03_PT030H.grib2 2026-05-03 06:16 1.4M
20260503T00Z_MSC_CAPS_WindDir_IsbL-0750_RLatLon0.03_PT030H.grib2 2026-05-03 06:16 1.5M
20260503T00Z_MSC_CAPS_WindDir_IsbL-0800_RLatLon0.03_PT030H.grib2 2026-05-03 06:16 1.6M
20260503T00Z_MSC_CAPS_WindDir_IsbL-0850_RLatLon0.03_PT030H.grib2 2026-05-03 06:16 1.7M
20260503T00Z_MSC_CAPS_WindDir_IsbL-0875_RLatLon0.03_PT030H.grib2 2026-05-03 06:16 1.8M
20260503T00Z_MSC_CAPS_WindDir_IsbL-0900_RLatLon0.03_PT030H.grib2 2026-05-03 06:16 1.9M
20260503T00Z_MSC_CAPS_WindDir_IsbL-0925_RLatLon0.03_PT030H.grib2 2026-05-03 06:16 1.9M
20260503T00Z_MSC_CAPS_WindDir_IsbL-0950_RLatLon0.03_PT030H.grib2 2026-05-03 06:16 2.0M
20260503T00Z_MSC_CAPS_WindDir_IsbL-0970_RLatLon0.03_PT030H.grib2 2026-05-03 06:16 2.1M
20260503T00Z_MSC_CAPS_WindDir_IsbL-0985_RLatLon0.03_PT030H.grib2 2026-05-03 06:16 2.2M
20260503T00Z_MSC_CAPS_WindDir_IsbL-1000_RLatLon0.03_PT030H.grib2 2026-05-03 06:16 2.3M
20260503T00Z_MSC_CAPS_WindDir_IsbL-1015_RLatLon0.03_PT030H.grib2 2026-05-03 06:16 2.4M
20260503T00Z_MSC_CAPS_WindGust-Max_AGL-10m_RLatLon0.03_PT030H.grib2 2026-05-03 06:16 2.5M
20260503T00Z_MSC_CAPS_WindGust-Min_AGL-10m_RLatLon0.03_PT030H.grib2 2026-05-03 06:16 2.4M
20260503T00Z_MSC_CAPS_WindGust_AGL-10m_RLatLon0.03_PT030H.grib2 2026-05-03 06:16 2.5M
20260503T00Z_MSC_CAPS_WindSpeed_AGL-10m_RLatLon0.03_PT030H.grib2 2026-05-03 06:16 2.1M
20260503T00Z_MSC_CAPS_WindSpeed_AGL-120m_RLatLon0.03_PT030H.grib2 2026-05-03 06:16 1.1M
20260503T00Z_MSC_CAPS_WindSpeed_AGL-40m_RLatLon0.03_PT030H.grib2 2026-05-03 06:16 1.2M
20260503T00Z_MSC_CAPS_WindSpeed_AGL-80m_RLatLon0.03_PT030H.grib2 2026-05-03 06:16 1.1M
20260503T00Z_MSC_CAPS_WindSpeed_IsbL-0050_RLatLon0.03_PT030H.grib2 2026-05-03 06:16 934K
20260503T00Z_MSC_CAPS_WindSpeed_IsbL-0100_RLatLon0.03_PT030H.grib2 2026-05-03 06:16 1.3M
20260503T00Z_MSC_CAPS_WindSpeed_IsbL-0150_RLatLon0.03_PT030H.grib2 2026-05-03 06:16 1.1M
20260503T00Z_MSC_CAPS_WindSpeed_IsbL-0175_RLatLon0.03_PT030H.grib2 2026-05-03 06:16 1.1M
20260503T00Z_MSC_CAPS_WindSpeed_IsbL-0200_RLatLon0.03_PT030H.grib2 2026-05-03 06:16 939K
20260503T00Z_MSC_CAPS_WindSpeed_IsbL-0225_RLatLon0.03_PT030H.grib2 2026-05-03 06:16 956K
20260503T00Z_MSC_CAPS_WindSpeed_IsbL-0250_RLatLon0.03_PT030H.grib2 2026-05-03 06:16 1.0M
20260503T00Z_MSC_CAPS_WindSpeed_IsbL-0275_RLatLon0.03_PT030H.grib2 2026-05-03 06:16 1.0M
20260503T00Z_MSC_CAPS_WindSpeed_IsbL-0300_RLatLon0.03_PT030H.grib2 2026-05-03 06:16 1.0M
20260503T00Z_MSC_CAPS_WindSpeed_IsbL-0350_RLatLon0.03_PT030H.grib2 2026-05-03 06:16 1.0M
20260503T00Z_MSC_CAPS_WindSpeed_IsbL-0400_RLatLon0.03_PT030H.grib2 2026-05-03 06:16 1.0M
20260503T00Z_MSC_CAPS_WindSpeed_IsbL-0450_RLatLon0.03_PT030H.grib2 2026-05-03 06:16 1.3M
20260503T00Z_MSC_CAPS_WindSpeed_IsbL-0500_RLatLon0.03_PT030H.grib2 2026-05-03 06:16 1.4M
20260503T00Z_MSC_CAPS_WindSpeed_IsbL-0550_RLatLon0.03_PT030H.grib2 2026-05-03 06:16 1.4M
20260503T00Z_MSC_CAPS_WindSpeed_IsbL-0600_RLatLon0.03_PT030H.grib2 2026-05-03 06:16 1.3M
20260503T00Z_MSC_CAPS_WindSpeed_IsbL-0650_RLatLon0.03_PT030H.grib2 2026-05-03 06:16 1.5M
20260503T00Z_MSC_CAPS_WindSpeed_IsbL-0700_RLatLon0.03_PT030H.grib2 2026-05-03 06:16 1.5M
20260503T00Z_MSC_CAPS_WindSpeed_IsbL-0750_RLatLon0.03_PT030H.grib2 2026-05-03 06:16 1.6M
20260503T00Z_MSC_CAPS_WindSpeed_IsbL-0800_RLatLon0.03_PT030H.grib2 2026-05-03 06:16 1.7M
20260503T00Z_MSC_CAPS_WindSpeed_IsbL-0850_RLatLon0.03_PT030H.grib2 2026-05-03 06:16 1.7M
20260503T00Z_MSC_CAPS_WindSpeed_IsbL-0875_RLatLon0.03_PT030H.grib2 2026-05-03 06:16 1.8M
20260503T00Z_MSC_CAPS_WindSpeed_IsbL-0900_RLatLon0.03_PT030H.grib2 2026-05-03 06:16 1.8M
20260503T00Z_MSC_CAPS_WindSpeed_IsbL-0925_RLatLon0.03_PT030H.grib2 2026-05-03 06:16 1.9M
20260503T00Z_MSC_CAPS_WindSpeed_IsbL-0950_RLatLon0.03_PT030H.grib2 2026-05-03 06:16 1.9M
20260503T00Z_MSC_CAPS_WindSpeed_IsbL-0970_RLatLon0.03_PT030H.grib2 2026-05-03 06:16 2.0M
20260503T00Z_MSC_CAPS_WindSpeed_IsbL-0985_RLatLon0.03_PT030H.grib2 2026-05-03 06:16 2.0M
20260503T00Z_MSC_CAPS_WindSpeed_IsbL-1000_RLatLon0.03_PT030H.grib2 2026-05-03 06:16 2.0M
20260503T00Z_MSC_CAPS_WindSpeed_IsbL-1015_RLatLon0.03_PT030H.grib2 2026-05-03 06:16 2.1M
20260503T00Z_MSC_CAPS_WindU_AGL-10m_RLatLon0.03_PT030H.grib2 2026-05-03 06:16 2.0M
20260503T00Z_MSC_CAPS_WindU_AGL-120m_RLatLon0.03_PT030H.grib2 2026-05-03 06:16 1.2M
20260503T00Z_MSC_CAPS_WindU_AGL-40m_RLatLon0.03_PT030H.grib2 2026-05-03 06:16 1.2M
20260503T00Z_MSC_CAPS_WindU_AGL-80m_RLatLon0.03_PT030H.grib2 2026-05-03 06:16 1.2M
20260503T00Z_MSC_CAPS_WindU_IsbL-0050_RLatLon0.03_PT030H.grib2 2026-05-03 06:16 938K
20260503T00Z_MSC_CAPS_WindU_IsbL-0100_RLatLon0.03_PT030H.grib2 2026-05-03 06:16 812K
20260503T00Z_MSC_CAPS_WindU_IsbL-0150_RLatLon0.03_PT030H.grib2 2026-05-03 06:16 925K
20260503T00Z_MSC_CAPS_WindU_IsbL-0175_RLatLon0.03_PT030H.grib2 2026-05-03 06:16 729K
20260503T00Z_MSC_CAPS_WindU_IsbL-0200_RLatLon0.03_PT030H.grib2 2026-05-03 06:16 869K
20260503T00Z_MSC_CAPS_WindU_IsbL-0225_RLatLon0.03_PT030H.grib2 2026-05-03 06:16 890K
20260503T00Z_MSC_CAPS_WindU_IsbL-0250_RLatLon0.03_PT030H.grib2 2026-05-03 06:16 914K
20260503T00Z_MSC_CAPS_WindU_IsbL-0275_RLatLon0.03_PT030H.grib2 2026-05-03 06:16 918K
20260503T00Z_MSC_CAPS_WindU_IsbL-0300_RLatLon0.03_PT030H.grib2 2026-05-03 06:16 923K
20260503T00Z_MSC_CAPS_WindU_IsbL-0350_RLatLon0.03_PT030H.grib2 2026-05-03 06:16 934K
20260503T00Z_MSC_CAPS_WindU_IsbL-0400_RLatLon0.03_PT030H.grib2 2026-05-03 06:16 942K
20260503T00Z_MSC_CAPS_WindU_IsbL-0450_RLatLon0.03_PT030H.grib2 2026-05-03 06:16 968K
20260503T00Z_MSC_CAPS_WindU_IsbL-0500_RLatLon0.03_PT030H.grib2 2026-05-03 06:16 1.0M
20260503T00Z_MSC_CAPS_WindU_IsbL-0550_RLatLon0.03_PT030H.grib2 2026-05-03 06:16 924K
20260503T00Z_MSC_CAPS_WindU_IsbL-0600_RLatLon0.03_PT030H.grib2 2026-05-03 06:16 956K
20260503T00Z_MSC_CAPS_WindU_IsbL-0650_RLatLon0.03_PT030H.grib2 2026-05-03 06:16 1.3M
20260503T00Z_MSC_CAPS_WindU_IsbL-0700_RLatLon0.03_PT030H.grib2 2026-05-03 06:16 1.3M
20260503T00Z_MSC_CAPS_WindU_IsbL-0750_RLatLon0.03_PT030H.grib2 2026-05-03 06:16 1.1M
20260503T00Z_MSC_CAPS_WindU_IsbL-0800_RLatLon0.03_PT030H.grib2 2026-05-03 06:16 1.1M
20260503T00Z_MSC_CAPS_WindU_IsbL-0850_RLatLon0.03_PT030H.grib2 2026-05-03 06:16 1.2M
20260503T00Z_MSC_CAPS_WindU_IsbL-0875_RLatLon0.03_PT030H.grib2 2026-05-03 06:16 1.2M
20260503T00Z_MSC_CAPS_WindU_IsbL-0900_RLatLon0.03_PT030H.grib2 2026-05-03 06:16 1.3M
20260503T00Z_MSC_CAPS_WindU_IsbL-0925_RLatLon0.03_PT030H.grib2 2026-05-03 06:16 1.3M
20260503T00Z_MSC_CAPS_WindU_IsbL-0950_RLatLon0.03_PT030H.grib2 2026-05-03 06:16 1.3M
20260503T00Z_MSC_CAPS_WindU_IsbL-0970_RLatLon0.03_PT030H.grib2 2026-05-03 06:16 1.4M
20260503T00Z_MSC_CAPS_WindU_IsbL-0985_RLatLon0.03_PT030H.grib2 2026-05-03 06:16 1.8M
20260503T00Z_MSC_CAPS_WindU_IsbL-1000_RLatLon0.03_PT030H.grib2 2026-05-03 06:16 1.8M
20260503T00Z_MSC_CAPS_WindU_IsbL-1015_RLatLon0.03_PT030H.grib2 2026-05-03 06:16 2.0M
20260503T00Z_MSC_CAPS_WindV_AGL-10m_RLatLon0.03_PT030H.grib2 2026-05-03 06:16 1.9M
20260503T00Z_MSC_CAPS_WindV_AGL-120m_RLatLon0.03_PT030H.grib2 2026-05-03 06:16 893K
20260503T00Z_MSC_CAPS_WindV_AGL-40m_RLatLon0.03_PT030H.grib2 2026-05-03 06:16 1.2M
20260503T00Z_MSC_CAPS_WindV_AGL-80m_RLatLon0.03_PT030H.grib2 2026-05-03 06:16 899K
20260503T00Z_MSC_CAPS_WindV_IsbL-0050_RLatLon0.03_PT030H.grib2 2026-05-03 06:16 759K
20260503T00Z_MSC_CAPS_WindV_IsbL-0100_RLatLon0.03_PT030H.grib2 2026-05-03 06:16 1.0M
20260503T00Z_MSC_CAPS_WindV_IsbL-0150_RLatLon0.03_PT030H.grib2 2026-05-03 06:16 716K
20260503T00Z_MSC_CAPS_WindV_IsbL-0175_RLatLon0.03_PT030H.grib2 2026-05-03 06:16 849K
20260503T00Z_MSC_CAPS_WindV_IsbL-0200_RLatLon0.03_PT030H.grib2 2026-05-03 06:16 865K
20260503T00Z_MSC_CAPS_WindV_IsbL-0225_RLatLon0.03_PT030H.grib2 2026-05-03 06:16 885K
20260503T00Z_MSC_CAPS_WindV_IsbL-0250_RLatLon0.03_PT030H.grib2 2026-05-03 06:16 696K
20260503T00Z_MSC_CAPS_WindV_IsbL-0275_RLatLon0.03_PT030H.grib2 2026-05-03 06:16 705K
20260503T00Z_MSC_CAPS_WindV_IsbL-0300_RLatLon0.03_PT030H.grib2 2026-05-03 06:16 712K
20260503T00Z_MSC_CAPS_WindV_IsbL-0350_RLatLon0.03_PT030H.grib2 2026-05-03 06:16 722K
20260503T00Z_MSC_CAPS_WindV_IsbL-0400_RLatLon0.03_PT030H.grib2 2026-05-03 06:16 942K
20260503T00Z_MSC_CAPS_WindV_IsbL-0450_RLatLon0.03_PT030H.grib2 2026-05-03 06:16 967K
20260503T00Z_MSC_CAPS_WindV_IsbL-0500_RLatLon0.03_PT030H.grib2 2026-05-03 06:16 1.0M
20260503T00Z_MSC_CAPS_WindV_IsbL-0550_RLatLon0.03_PT030H.grib2 2026-05-03 06:16 1.0M
20260503T00Z_MSC_CAPS_WindV_IsbL-0600_RLatLon0.03_PT030H.grib2 2026-05-03 06:16 954K
20260503T00Z_MSC_CAPS_WindV_IsbL-0650_RLatLon0.03_PT030H.grib2 2026-05-03 06:16 1.0M
20260503T00Z_MSC_CAPS_WindV_IsbL-0700_RLatLon0.03_PT030H.grib2 2026-05-03 06:16 1.0M
20260503T00Z_MSC_CAPS_WindV_IsbL-0750_RLatLon0.03_PT030H.grib2 2026-05-03 06:16 1.1M
20260503T00Z_MSC_CAPS_WindV_IsbL-0800_RLatLon0.03_PT030H.grib2 2026-05-03 06:16 1.1M
20260503T00Z_MSC_CAPS_WindV_IsbL-0850_RLatLon0.03_PT030H.grib2 2026-05-03 06:16 1.5M
20260503T00Z_MSC_CAPS_WindV_IsbL-0875_RLatLon0.03_PT030H.grib2 2026-05-03 06:16 1.2M
20260503T00Z_MSC_CAPS_WindV_IsbL-0900_RLatLon0.03_PT030H.grib2 2026-05-03 06:16 1.3M
20260503T00Z_MSC_CAPS_WindV_IsbL-0925_RLatLon0.03_PT030H.grib2 2026-05-03 06:16 1.3M
20260503T00Z_MSC_CAPS_WindV_IsbL-0950_RLatLon0.03_PT030H.grib2 2026-05-03 06:16 1.3M
20260503T00Z_MSC_CAPS_WindV_IsbL-0970_RLatLon0.03_PT030H.grib2 2026-05-03 06:16 1.4M
20260503T00Z_MSC_CAPS_WindV_IsbL-0985_RLatLon0.03_PT030H.grib2 2026-05-03 06:16 1.4M
20260503T00Z_MSC_CAPS_WindV_IsbL-1000_RLatLon0.03_PT030H.grib2 2026-05-03 06:16 1.8M
20260503T00Z_MSC_CAPS_WindV_IsbL-1015_RLatLon0.03_PT030H.grib2 2026-05-03 06:16 1.9M